Вернуться в каталог

THORAD AGENA D DEB

АктивенSSO
NORAD 5690·DEBRIS·🇺🇸 United States

Запущен Apr 8, 1970 с Vandenberg Space Force Base

Loading…

Ближайшие Пролёты (ближайшие 24 часа)

TLE

СвежийSource: Space-Track

Эпоха: Sep 14, 2026, 12:45 UTC

1  5690U 70025LV  26257.53187573  .00000037  00000-0  12839-3 0  9991
2  5690 100.1913 275.2004 0048535 218.6876 295.9083 13.51641499778450

Отслеживайте THORAD AGENA D DEB в реальном времени с AllMySat

Download on the App Store